Time,TemperatureF,DewpointF,PressureIn,WindDirection,WindDirectionDegrees,WindSpeedMPH,WindSpeedGustMPH,Humidity,HourlyPrecipIn,Conditions,Clouds,dailyrainin,SoftwareType,DateUTC
2013-07-15 00:00:00,70.9,59.0,30.13,SW,225,0.0,0.0,66,0.00,,,0.00,VWS V13.01,2013-07-15 04:00:00,
2013-07-15 00:30:00,69.9,56.8,30.13,SW,225,0.0,0.0,63,0.00,,,0.00,VWS V13.01,2013-07-15 04:30:00,
2013-07-15 01:00:00,68.1,53.7,30.13,SW,225,0.0,0.0,60,0.00,,,0.00,VWS V13.01,2013-07-15 05:00:00,
2013-07-15 01:30:00,67.4,49.7,30.13,SW,225,0.0,0.0,53,0.00,,,0.00,VWS V13.01,2013-07-15 05:30:00,
2013-07-15 02:00:00,66.8,48.1,30.12,SW,225,0.0,0.0,51,0.00,,,0.00,VWS V13.01,2013-07-15 06:00:00,
2013-07-15 02:30:00,67.0,46.1,30.11,SW,225,0.0,0.0,47,0.00,,,0.00,VWS V13.01,2013-07-15 06:30:00,
2013-07-15 03:00:00,67.3,44.1,30.11,SW,225,0.0,0.0,43,0.00,,,0.00,VWS V13.01,2013-07-15 07:00:00,
2013-07-15 03:30:00,67.5,43.0,30.11,SW,225,0.0,0.0,41,0.00,,,0.00,VWS V13.01,2013-07-15 07:30:00,
2013-07-15 04:00:00,66.9,42.5,30.11,SW,225,0.0,0.0,41,0.00,,,0.00,VWS V13.01,2013-07-15 08:00:00,
2013-07-15 04:30:00,67.0,41.9,30.11,SW,225,0.0,0.0,40,0.00,,,0.00,VWS V13.01,2013-07-15 08:30:00,
2013-07-15 05:00:00,66.6,40.9,30.11,SW,225,0.0,0.0,39,0.00,,,0.00,VWS V13.01,2013-07-15 09:00:00,
2013-07-15 05:30:00,66.6,40.9,30.11,SW,225,0.0,0.0,39,0.00,,,0.00,VWS V13.01,2013-07-15 09:30:00,
2013-07-15 06:00:00,66.4,40.0,30.11,SW,225,0.0,0.0,38,0.00,,,0.00,VWS V13.01,2013-07-15 10:00:00,
2013-07-15 06:30:00,66.2,39.9,30.11,SW,225,0.0,0.0,38,0.00,,,0.00,VWS V13.01,2013-07-15 10:30:00,
2013-07-15 07:00:00,67.0,40.6,30.11,SW,225,0.0,0.0,38,0.00,,,0.00,VWS V13.01,2013-07-15 11:00:00,
2013-07-15 07:30:00,69.3,47.1,30.11,SW,225,0.0,0.0,45,0.00,,,0.00,VWS V13.01,2013-07-15 11:30:00,
2013-07-15 08:00:00,73.7,60.8,30.11,SW,225,0.0,0.0,64,0.00,,,0.00,VWS V13.01,2013-07-15 12:00:00,
2013-07-15 08:30:00,76.9,64.2,30.11,SW,225,0.0,0.0,65,0.00,,,0.00,VWS V13.01,2013-07-15 12:30:00,
2013-07-15 09:00:00,77.0,64.8,30.11,SW,225,0.0,0.0,66,0.00,,,0.00,VWS V13.01,2013-07-15 13:00:00,
2013-07-15 09:30:00,78.7,66.0,30.11,NNW,338,2.0,7.0,65,0.00,,,0.00,VWS V13.01,2013-07-15 13:30:00,
2013-07-15 10:00:00,80.7,66.9,30.10,NW,315,1.0,7.0,63,0.00,,,0.00,VWS V13.01,2013-07-15 14:00:00,
2013-07-15 10:30:00,82.4,67.6,30.10,NW,315,4.0,10.0,61,0.00,,,0.00,VWS V13.01,2013-07-15 14:30:00,
2013-07-15 11:00:00,83.9,67.1,30.09,NW,315,6.0,12.0,57,0.00,,,0.00,VWS V13.01,2013-07-15 15:00:00,
2013-07-15 11:30:00,85.0,68.6,30.08,NNW,338,5.0,13.0,58,0.00,,,0.00,VWS V13.01,2013-07-15 15:30:00,
2013-07-15 12:00:00,86.0,67.4,30.08,NW,315,5.0,13.0,54,0.00,,,0.00,VWS V13.01,2013-07-15 16:00:00,
2013-07-15 12:30:00,87.2,68.5,30.08,North,0,3.0,13.0,54,0.00,,,0.00,VWS V13.01,2013-07-15 16:30:00,
2013-07-15 13:00:00,87.8,67.4,30.07,NNW,338,7.0,15.0,51,0.00,,,0.00,VWS V13.01,2013-07-15 17:00:00,
2013-07-15 13:30:00,88.2,66.7,30.06,North,0,4.0,12.0,49,0.00,,,0.00,VWS V13.01,2013-07-15 17:30:00,
2013-07-15 14:00:00,89.1,67.5,30.05,NNE,22,3.0,13.0,49,0.00,,,0.00,VWS V13.01,2013-07-15 18:00:00,
2013-07-15 14:30:00,89.7,67.4,30.05,NNW,338,3.0,10.0,48,0.00,,,0.00,VWS V13.01,2013-07-15 18:30:00,
2013-07-15 14:59:00,90.2,68.5,30.03,NW,315,5.0,13.0,49,0.00,,,0.00,VWS V13.01,2013-07-15 18:59:00,
2013-07-15 15:32:00,90.4,69.2,30.01,North,5,0.0,11.0,50,0.00,,,0.00,VWS V13.01,2013-07-15 19:32:00,
2013-07-15 16:02:00,90.9,69.1,30.01,NW,315,3.0,11.0,49,0.00,,,0.00,VWS V13.01,2013-07-15 20:02:00,
2013-07-15 16:32:00,90.1,70.7,30.00,SW,230,0.0,10.0,53,0.00,,,0.00,VWS V13.01,2013-07-15 20:32:00,
2013-07-15 17:32:00,87.4,71.8,29.99,SSW,199,0.0,7.0,60,0.00,,,0.00,VWS V13.01,2013-07-15 21:32:00,
2013-07-15 18:02:00,86.5,71.0,29.99,WSW,240,5.0,7.0,60,0.00,,,0.00,VWS V13.01,2013-07-15 22:02:00,
2013-07-15 18:32:00,84.5,70.1,29.99,WSW,245,7.0,11.0,62,0.00,,,0.00,VWS V13.01,2013-07-15 22:32:00,
2013-07-15 19:32:00,81.3,68.9,30.00,SSW,212,1.0,5.0,66,0.00,,,0.00,VWS V13.01,2013-07-15 23:32:00,
2013-07-15 20:02:00,79.3,67.8,30.01,SW,220,0.0,2.0,68,0.00,,,0.00,VWS V13.01,2013-07-16 00:02:00,
2013-07-15 20:32:00,77.2,66.2,30.01,SW,232,0.0,1.0,69,0.00,,,0.00,VWS V13.01,2013-07-16 00:32:00,
2013-07-15 21:02:00,76.0,65.1,30.02,SW,232,0.0,0.0,69,0.00,,,0.00,VWS V13.01,2013-07-16 01:02:00,
2013-07-15 21:32:00,75.1,64.2,30.03,SW,232,0.0,0.0,69,0.00,,,0.00,VWS V13.01,2013-07-16 01:32:00,
2013-07-15 22:02:00,73.9,61.8,30.03,SW,232,0.0,0.0,66,0.00,,,0.00,VWS V13.01,2013-07-16 02:02:00,
2013-07-15 22:32:00,73.1,60.7,30.03,SW,232,0.0,0.0,65,0.00,,,0.00,VWS V13.01,2013-07-16 02:32:00,
2013-07-15 23:32:00,71.3,54.8,30.03,SW,232,0.0,0.0,56,0.00,,,0.00,VWS V13.01,2013-07-16 03:32:00,